GFSFLT2_850_temp_021.txt.gz
Temp
14 14 14 14 14 14 14 14 14 14 14 14 13 14 14 14 14 14 14 14 14 13 13 13 13 13 13 13 13 13 13 14
14 14 13 14 14 14 14 14 14 14 14 13 13 13 13 13 13 13 13 13 13 13 13 13 13 13 12 12 13 13 13 14
14 14 13 13 13 13 14 14 14 13 14 13 13 12 12 13 13 13 13 13 13 13 13 13 12 13 13 12 13 13 13 13
13 14 14 14 14 13 12 13 13 12 12 13 13 12 12 12 13 13 13 13 13 12 12 12 12 12 13 12 12 12 13 13
13 13 14 13 13 13 13 13 12 12 12 12 12 12 12 12 13 13 12 12 13 12 12 12 11 11 11 11 11 11 12 12
13 13 13 13 13 14 13 13 13 13 13 11 12 12 12 12 13 13 12 13 12 12 12 11 11 11 11 10 10 10 11 10
12 12 12 12 13 12 12 12 13 13 12 13 12 12 12 12 12 11 12 12 12 12 12 11 11 11 10 10 10 10 10 10
13 13 12 13 12 12 12 13 13 13 12 12 12 12 13 12 11 11 11 10 10 10 10 10 10 10 10 10 9 9 9 9
14 13 13 12 12 13 13 13 13 12 12 12 12 11 11 11 11 11 10 10 10 10 10 10 10 10 10 9 9 9 9 9
14 13 12 13 14 13 13 13 12 11 12 12 12 12 11 11 10 9 10 9 9 9 9 9 8 9 9 8 8 8 8 8
13 12 12 13 13 13 12 12 12 11 11 11 11 11 11 9 9 8 9 8 8 8 8 7 8 8 8 8 7 8 8 7
13 12 12 12 13 12 11 11 10 10 10 9 9 9 10 9 8 9 9 8 8 7 6 6 7 7 7 6 6 7 7 7
12 13 12 12 11 11 11 10 10 10 10 9 9 9 9 9 8 8 7 7 6 6 6 5 6 6 6 5 5 5 7 7
12 11 11 11 12 12 12 12 11 10 9 10 9 9 7 7 7 6 6 6 6 5 5 5 5 5 5 4 4 5 6 6
12 12 12 13 13 12 11 11 10 10 9 9 7 6 6 6 6 5 5 5 5 5 4 3 4 4 4 4 3 4 3 3
13 13 12 11 12 12 12 12 12 10 9 8 7 6 6 6 5 5 4 4 4 4 4 3 2 3 3 3 3 2 2 2
12 12 11 11 11 10 11 10 9 8 8 7 7 7 6 6 6 5 4 3 3 3 2 2 2 2 2 1 1 1 1 1
11 11 10 10 9 9 8 8 8 8 7 7 6 6 5 5 4 4 3 3 3 3 2 1 1 0 1 1 1 1 0 0
11 10 9 9 8 8 7 7 6 6 6 5 5 5 4 4 3 3 2 3 2 2 1 -0 -0 -0 -0 -0 -0 -0 -1 -1
10 10 9 8 7 7 6 7 6 5 5 4 4 3 3 2 2 2 2 2 2 0 -0 -1 -1 -1 -1 -1 -1 -1 -1 -2

GFSFLT2_850_temp_024.txt.gz
Temp
12 12 13 13 14 14 14 14 14 14 14 14 14 14 14 14 13 14 14 14 13 13 13 13 13 13 13 13 13 13 13 13
13 13 13 14 14 14 14 15 14 14 14 14 14 14 14 13 13 13 13 13 13 13 13 13 13 13 12 13 13 13 13 13
13 13 14 14 14 14 14 14 14 14 14 13 13 13 13 12 13 13 13 13 13 13 13 12 12 12 12 12 12 12 13 13
13 14 14 14 14 14 14 14 13 13 13 13 13 12 12 13 13 13 13 13 13 12 12 12 11 12 12 12 11 11 12 12
14 14 14 13 14 13 13 13 12 12 12 13 13 13 13 13 13 13 13 13 12 12 12 12 12 11 11 11 10 10 11 11
14 14 14 14 14 14 14 13 13 12 13 12 13 13 13 13 13 13 12 12 12 12 12 12 11 11 11 11 10 10 10 10
14 14 13 13 14 13 13 13 13 13 13 13 13 12 12 13 13 12 12 12 12 11 11 11 11 10 10 10 10 10 9 9
14 13 14 13 13 13 13 14 14 14 13 12 12 12 13 13 13 12 11 11 11 11 10 10 10 10 10 10 9 9 9 9
13 13 13 13 13 13 13 14 13 13 12 12 12 12 12 12 12 11 11 11 10 10 10 9 9 9 9 9 8 8 8 8
13 13 13 13 13 14 14 15 13 12 12 12 12 12 12 11 10 10 11 10 9 9 9 8 8 8 8 8 8 8 8 8
14 13 13 13 13 13 14 13 13 12 12 11 12 12 11 10 10 10 10 9 8 8 8 8 7 7 7 7 7 7 7 7
14 13 14 13 13 13 12 12 12 11 11 10 10 11 11 10 9 9 8 8 7 7 7 6 6 6 6 6 6 5 6 6
14 13 12 11 12 12 11 11 10 10 10 9 9 9 9 9 8 8 7 7 6 6 6 5 5 5 5 5 5 5 5 6
14 12 11 12 12 11 11 11 11 10 10 10 9 9 8 7 8 7 7 7 6 5 5 5 4 4 4 4 4 4 4 4
14 13 11 12 12 12 12 12 11 11 10 9 8 8 8 8 7 6 6 5 5 4 4 4 4 3 3 3 3 3 2 2
13 12 12 13 13 12 12 12 11 10 9 9 8 7 7 6 6 6 5 5 4 4 4 4 3 2 2 2 2 2 1 1
13 13 12 12 12 12 11 11 10 9 8 8 7 7 6 6 6 5 5 5 4 3 3 3 2 2 1 1 1 1 1 1
13 12 11 11 11 11 11 10 9 8 8 8 7 6 6 5 5 5 5 3 3 3 3 2 2 1 1 0 0 0 0 -0
12 11 11 10 10 10 10 9 9 9 8 7 7 5 5 4 4 4 3 2 2 2 2 2 1 1 -0 -0 -0 -0 -1 -1
11 11 10 9 8 8 8 9 8 8 8 8 6 5 4 3 3 3 2 2 1 1 1 1 0 -0 -1 -1 -2 -1 -1 -2

GFSFLT2_850_temp_030.txt.gz
Temp
12 12 12 13 14 15 15 15 15 15 15 15 15 15 15 15 15 15 14 14 13 13 13 13 13 13 13 12 12 12 12 12
11 11 12 13 13 14 15 15 15 15 15 15 15 15 15 15 14 14 14 14 13 13 13 13 12 12 12 12 12 12 11 11
11 12 12 13 14 14 14 15 14 14 14 15 15 15 14 14 14 13 13 13 12 12 12 12 12 12 12 11 11 11 11 11
13 12 12 13 14 14 14 15 14 14 14 14 14 13 13 13 13 12 12 12 12 12 12 11 11 11 11 11 10 10 10 10
13 12 12 13 14 14 14 14 13 13 13 13 13 13 13 12 12 12 12 12 12 12 11 11 11 11 11 10 10 10 10 9
12 12 13 14 14 14 14 14 13 12 13 13 13 12 13 12 12 12 12 12 12 12 11 11 11 11 11 11 10 10 9 9
13 13 13 13 14 13 13 13 13 13 13 12 12 12 12 12 12 12 12 12 11 11 11 11 11 11 10 10 10 9 9 9
12 13 13 13 13 13 13 13 13 13 12 12 12 12 12 12 12 12 12 12 11 11 11 11 11 10 10 9 9 9 8 7
13 13 13 13 13 13 13 13 12 12 12 12 12 13 13 12 12 12 12 11 11 11 11 10 10 10 9 8 8 7 7 7
13 13 13 13 13 13 13 12 12 12 12 12 13 13 12 12 12 11 11 11 11 11 11 10 9 8 8 8 7 6 6 6
13 13 13 13 13 13 13 13 12 13 13 13 13 12 12 11 11 10 11 11 11 10 10 9 8 7 6 6 6 5 5 5
14 13 13 13 13 13 13 13 13 13 12 12 12 11 12 12 11 11 11 11 10 9 8 8 7 7 6 6 5 4 4 4
15 15 14 14 13 13 13 13 13 12 12 12 12 12 12 11 11 11 10 9 8 8 8 7 7 6 5 4 4 4 4 4
15 15 15 14 14 13 14 13 13 12 12 11 11 11 11 11 11 10 10 10 9 8 7 7 5 4 3 3 3 3 3 3
15 15 15 15 14 13 13 13 12 11 11 10 11 10 10 10 10 10 9 8 8 6 5 4 3 3 3 3 2 2 2 1
15 15 13 13 13 12 13 12 11 11 11 10 10 9 10 10 10 9 8 7 6 6 5 4 3 3 2 2 2 1 1 1
16 13 12 12 12 12 12 12 12 11 10 10 9 9 9 9 9 8 6 6 6 5 5 4 3 2 2 2 1 1 1 0
14 13 12 11 12 12 12 12 11 10 10 9 9 9 8 7 6 6 6 5 5 5 4 2 2 1 1 1 0 0 -0 -1
14 14 13 12 11 11 11 11 11 10 10 9 8 8 7 7 6 5 5 4 4 3 2 2 1 1 0 -0 -1 -1 -1 -2
12 13 13 12 12 11 11 11 10 10 9 8 8 7 6 5 5 4 4 3 3 2 2 1 0 0 -0 -1 -1 -1 -1 -1

GFSFLT2_850_temp_033.txt.gz
Temp
12 12 12 14 14 14 15 15 16 15 15 15 15 15 14 14 14 14 14 14 14 14 13 13 12 12 12 12 12 12 12 11
12 11 12 13 13 14 16 16 15 15 15 15 15 14 14 14 14 14 13 13 13 13 13 12 12 12 12 12 12 12 11 11
11 11 13 14 14 14 15 15 14 14 14 14 14 14 14 13 13 13 13 13 13 13 12 12 12 12 11 11 11 11 10 10
11 11 12 13 13 14 14 14 14 14 14 14 13 13 13 13 13 13 13 12 13 12 12 12 12 11 11 11 10 10 10 10
11 12 12 12 13 13 14 13 13 13 13 13 13 13 13 13 13 13 12 12 12 12 12 11 11 11 10 10 10 10 9 9
12 12 12 13 13 14 13 13 13 13 13 13 13 13 13 12 12 12 12 12 12 12 11 11 11 10 10 10 10 10 9 9
12 12 12 13 13 13 13 12 13 13 13 13 13 13 13 13 12 12 12 12 11 11 11 11 10 10 10 10 9 9 9 9
13 13 14 13 13 13 13 13 12 13 12 12 12 12 12 12 12 12 12 11 10 10 10 10 10 10 9 9 8 8 8 7
13 13 13 13 13 13 13 12 13 13 12 12 12 12 12 12 12 12 11 11 10 10 10 10 9 9 8 8 8 7 7 7
14 13 13 13 12 12 12 12 12 12 12 12 12 12 12 12 11 11 11 10 10 10 10 9 9 8 8 8 7 6 6 5
13 13 13 13 13 13 12 12 12 12 12 12 12 12 11 11 11 11 11 11 10 10 9 9 8 7 7 7 6 5 5 5
14 13 13 13 13 13 12 11 11 12 12 12 12 12 11 11 11 11 11 10 10 10 9 8 8 8 7 6 5 5 4 4
13 13 13 13 13 13 12 12 12 12 12 12 11 11 11 11 11 10 10 10 10 9 9 8 8 8 7 6 5 4 3 4
13 13 13 13 13 13 13 12 12 12 11 11 11 11 11 11 10 10 10 10 9 9 9 8 7 6 5 4 3 3 3 3
15 14 14 13 13 13 12 12 12 11 11 11 10 11 10 9 9 9 9 9 9 9 8 7 6 5 4 3 2 2 2 2
16 15 15 14 13 13 12 13 12 12 12 11 10 9 9 9 9 9 9 7 7 7 6 6 5 4 3 2 2 1 1 0
15 15 14 14 13 12 13 11 11 12 11 10 9 9 9 9 9 8 6 7 7 6 5 4 4 3 2 1 1 0 0 0
15 14 15 13 13 14 12 10 11 12 11 9 9 9 9 8 8 7 6 5 5 5 4 4 2 1 1 0 0 -0 -1 -1
15 15 13 12 12 11 11 11 11 11 11 10 9 9 8 7 7 6 5 5 5 4 3 2 2 1 0 -0 -0 -1 -1 -1
14 15 15 13 12 11 11 11 10 10 10 9 8 8 7 6 5 5 4 4 4 3 2 2 1 0 -0 -0 -1 -1 -1 -2

GFSFLT2_850_temp_039.txt.gz
Temp
12 12 10 13 15 15 15 14 15 14 14 14 14 14 14 14 13 13 13 13 13 13 13 12 12 12 12 11 11 11 11 11
12 11 11 10 13 14 15 15 15 14 15 14 14 14 14 13 13 13 13 13 13 12 12 12 12 12 11 11 11 11 11 10
11 10 9 10 12 14 14 15 14 14 14 14 14 14 14 13 13 13 13 12 12 12 12 12 11 11 11 11 10 10 10 10
11 10 7 9 12 14 13 13 13 14 14 14 14 13 13 13 13 13 12 12 12 12 12 12 11 11 11 10 10 10 10 9
10 10 9 11 12 12 13 12 13 14 14 14 13 13 13 13 13 13 12 12 12 12 11 11 11 11 10 10 10 10 9 9
9 10 10 10 11 12 12 12 14 14 13 14 13 13 13 13 13 12 12 12 12 11 11 11 10 10 10 10 10 10 9 9
9 10 10 10 11 11 12 13 14 13 13 13 13 13 13 12 12 12 12 12 11 11 11 11 10 10 10 10 10 9 9 9
11 10 11 11 12 12 13 13 13 13 13 13 13 12 12 12 12 12 12 11 11 11 10 10 10 10 10 9 9 9 9 9
12 11 11 11 12 12 13 13 13 13 12 12 12 12 12 12 12 12 11 11 11 10 10 10 10 9 9 9 9 9 8 8
12 11 11 12 12 13 13 12 12 12 12 12 12 12 12 12 11 11 11 11 10 10 10 9 9 9 9 8 8 7 6 6
12 12 12 13 12 13 12 12 12 11 12 12 12 13 12 11 11 11 10 10 10 10 9 9 9 9 8 8 7 6 5 4
12 12 13 12 12 12 12 12 12 12 12 12 12 12 12 11 11 10 10 10 10 9 9 9 8 8 7 6 6 6 5 4
13 12 13 12 12 13 12 12 12 12 12 12 12 12 11 11 10 10 9 9 9 8 8 8 8 7 6 5 6 5 4 4
13 13 13 13 13 13 12 12 12 12 12 12 11 11 11 10 10 9 9 9 8 8 8 8 7 6 6 6 5 4 4 3
14 13 13 13 13 13 12 12 12 12 12 11 11 11 11 10 9 9 9 9 8 8 7 7 6 5 6 6 5 5 3 3
14 14 14 13 13 13 13 12 12 12 12 11 11 11 10 9 9 9 8 8 7 7 6 6 5 5 6 6 6 4 3 3
15 14 14 14 14 13 13 12 12 12 11 11 10 10 10 9 9 8 8 8 7 6 6 5 6 6 6 5 4 3 2 1
16 15 14 14 14 14 13 12 12 11 11 10 10 10 9 9 8 8 8 7 6 6 6 7 6 5 5 5 3 1 1 0
16 15 15 15 14 14 13 13 12 11 11 10 10 10 9 9 8 8 7 6 6 6 6 6 5 4 4 3 2 1 0 -1
17 15 16 14 13 14 14 13 12 11 10 10 10 9 9 8 8 7 6 6 6 6 6 5 4 4 3 3 2 0 -0 -1

GFSFLT2_850_temp_042.txt.gz
Temp
12 11 11 12 13 14 15 15 15 15 15 14 15 14 14 14 14 14 13 13 13 13 13 12 12 12 12 12 12 12 11 11
11 11 11 12 12 14 14 14 15 15 14 14 14 14 13 14 13 13 13 13 13 12 12 12 12 11 11 11 11 11 11 11
11 10 10 10 10 12 14 14 14 14 13 14 14 12 12 12 13 13 13 12 12 12 12 11 11 11 11 11 10 10 11 11
10 10 9 8 11 11 11 12 13 13 13 13 12 11 12 12 13 12 12 12 12 12 12 11 11 10 11 10 10 10 10 10
9 8 8 8 9 11 12 13 14 13 13 12 12 12 13 11 12 12 12 12 12 12 11 11 11 10 10 10 10 10 10 9
9 9 9 8 8 9 12 12 12 13 12 11 13 12 13 12 11 11 12 11 12 12 11 11 11 10 10 11 10 9 9 9
7 7 8 9 8 10 11 12 13 13 11 13 12 12 13 12 12 11 12 12 11 11 11 11 10 11 11 10 10 10 10 8
8 8 8 8 9 10 11 13 13 11 11 13 13 13 13 12 12 12 12 11 11 11 10 9 9 10 10 10 10 9 9 9
8 9 9 10 10 11 11 11 10 11 13 13 13 13 13 12 12 12 12 11 11 11 10 10 10 10 10 10 9 9 8 8
9 9 10 11 11 11 10 10 10 11 11 13 12 12 12 12 12 11 11 11 11 10 9 9 9 9 9 8 8 8 8 8
10 11 11 11 10 12 12 12 12 11 12 12 12 12 12 12 12 11 11 11 10 10 10 9 8 8 8 7 7 6 6 5
10 11 10 11 11 11 10 11 11 10 11 12 12 12 12 12 11 11 11 10 10 9 9 9 8 8 8 7 6 5 5 4
11 10 10 11 11 10 11 11 11 10 12 12 12 12 12 12 11 11 10 10 9 9 9 9 7 8 7 7 5 4 4 4
11 11 11 11 11 11 11 11 11 10 10 11 12 12 12 12 11 10 10 9 9 9 9 8 7 8 7 6 8 7 4 3
12 12 12 11 11 11 11 11 11 10 12 12 12 12 11 11 11 10 10 9 9 9 9 8 7 6 6 6 7 9 7 6
12 12 12 12 11 12 11 12 12 11 11 12 12 12 11 11 11 10 9 9 9 9 9 8 7 6 7 6 4 5 6 7
12 12 12 12 11 11 11 11 12 12 10 11 12 11 11 10 10 9 9 9 9 8 8 8 7 6 6 4 4 4 3 4
13 13 12 12 11 13 12 12 11 11 12 12 11 11 10 10 9 9 8 8 8 8 7 7 7 6 5 4 4 4 5 4
15 15 14 13 14 13 13 13 13 12 12 12 12 11 10 10 9 8 8 8 7 7 6 6 6 5 4 3 3 3 3 2
14 16 15 15 14 14 13 13 13 12 10 9 10 10 10 9 9 8 8 7 7 6 5 5 4 4 2 2 2 2 1 1

GFSFLT2_850_temp_048.txt.gz
Temp
13 13 13 13 13 14 15 15 15 15 15 15 14 14 14 14 14 14 14 13 13 13 13 12 13 13 13 12 13 13 13 12
13 12 12 11 12 12 13 14 15 15 14 14 14 14 14 14 14 14 13 13 13 12 12 12 12 13 12 12 12 12 12 12
12 12 12 13 11 12 12 13 14 13 13 14 13 13 13 14 13 13 13 13 12 12 12 12 12 12 12 12 12 12 12 12
11 11 11 12 13 10 11 12 12 13 13 13 13 13 13 13 13 13 12 12 12 12 12 12 12 12 11 11 12 11 11 11
11 11 11 11 11 9 10 11 13 12 12 13 13 13 13 13 13 12 12 12 12 12 12 11 11 12 12 12 11 11 11 11
10 10 9 10 9 9 10 10 12 12 11 12 12 12 13 12 12 12 12 12 12 11 11 11 12 12 12 12 12 11 11 10
10 8 8 8 9 8 8 11 11 11 12 11 12 13 12 12 12 12 12 12 11 11 11 11 11 11 11 11 11 11 11 10
8 8 7 8 7 8 8 9 10 11 12 12 12 12 12 12 12 12 12 12 11 11 11 11 10 11 11 11 11 11 11 10
8 7 8 7 8 8 8 9 10 11 11 11 12 12 12 12 12 12 12 11 11 11 11 10 10 10 10 11 11 11 10 10
7 7 8 8 8 8 9 10 12 11 10 11 11 12 12 12 12 12 11 11 11 11 11 10 10 10 10 10 9 9 9 9
9 9 8 7 8 8 10 11 11 12 12 12 11 12 11 12 11 11 11 11 11 10 10 10 10 10 10 10 9 9 8 8
9 9 9 9 9 10 11 10 11 11 11 11 11 12 12 12 11 11 12 11 10 10 10 10 10 10 10 10 10 9 9 8
10 10 10 9 9 10 10 11 11 11 12 12 12 12 12 12 11 10 12 11 10 10 10 9 10 10 10 10 9 9 9 8
10 10 10 9 10 10 11 11 11 12 12 12 12 12 12 12 11 11 12 11 10 10 10 9 9 9 10 9 9 9 8 8
12 11 10 10 11 11 11 12 12 12 12 12 12 12 11 11 11 11 10 11 10 10 10 9 9 9 9 9 8 9 9 9
12 12 12 11 12 12 13 12 13 13 13 12 12 12 12 11 11 10 10 10 9 9 9 9 8 8 8 8 8 7 7 7
14 13 13 13 13 12 13 13 13 13 13 13 13 12 11 10 10 10 10 9 9 9 9 8 8 8 8 7 7 6 6 6
14 14 14 14 14 14 13 13 13 13 13 13 13 12 12 11 11 10 9 9 9 8 8 8 7 8 7 7 6 6 6 6
15 15 14 14 14 14 14 13 13 14 13 13 13 11 10 11 11 10 9 9 8 7 7 7 7 7 6 6 6 5 5 5
15 15 15 14 14 14 14 15 14 14 13 13 13 13 11 9 10 9 9 9 8 7 7 7 6 6 5 5 5 5 4 4

GFSFLT2_850_temp_051.txt.gz
Temp
13 14 13 12 13 12 14 15 15 15 15 15 15 14 14 14 14 14 14 13 13 13 13 13 13 13 13 13 12 12 12 12
13 13 13 13 11 12 14 14 15 15 14 14 14 14 14 14 14 13 13 13 13 13 13 13 13 12 12 12 12 12 11 11
13 13 13 11 12 12 13 13 14 14 14 14 14 13 13 13 13 13 13 13 12 12 12 12 12 12 12 12 12 11 12 12
12 12 12 13 13 13 13 13 13 13 13 13 13 13 13 13 13 13 13 12 12 12 12 11 11 11 12 11 12 11 12 11
12 12 11 12 12 13 13 13 12 13 13 12 13 13 13 13 13 13 12 12 12 12 11 11 11 11 12 11 11 12 11 11
11 11 11 11 12 12 12 12 12 12 12 12 13 13 13 12 13 12 12 12 12 11 11 11 11 11 12 12 11 12 12 11
10 10 10 11 11 11 12 12 12 12 12 11 13 12 13 13 13 12 12 12 11 11 11 11 11 12 12 12 12 12 12 11
10 9 10 10 9 10 10 11 12 11 11 12 12 12 13 13 12 12 12 12 11 11 11 11 11 11 12 11 12 11 11 11
9 10 9 8 9 9 9 10 10 11 11 12 12 12 12 12 12 12 12 11 11 11 11 11 11 10 11 11 11 11 11 11
8 8 8 9 9 10 9 9 10 11 10 12 12 12 12 12 12 12 12 11 11 11 11 10 10 10 10 10 11 11 11 10
8 8 8 9 9 9 9 9 10 12 12 12 12 12 11 12 12 12 12 12 11 11 11 11 10 10 10 10 10 11 10 10
7 8 8 8 9 9 9 10 11 11 11 11 12 12 12 12 11 12 11 11 11 11 11 10 10 10 10 10 10 10 10 10
8 8 8 8 9 8 9 10 11 11 11 12 12 12 12 12 12 11 11 12 11 11 10 10 10 10 10 10 10 10 9 9
8 8 8 9 8 10 10 11 11 11 12 12 11 11 12 11 12 12 12 12 11 10 10 10 10 10 10 10 9 9 9 9
11 10 9 10 11 10 11 10 11 11 11 11 12 12 12 11 12 12 11 12 11 10 10 10 10 10 9 9 9 9 8 8
12 11 11 11 11 11 10 10 10 11 12 12 12 12 12 12 12 12 11 11 11 10 10 10 9 9 9 9 8 8 8 7
12 12 11 11 10 11 11 11 12 12 12 12 12 12 12 11 11 11 11 10 10 9 10 9 9 9 8 8 8 7 7 6
13 12 12 12 12 12 11 12 12 12 13 13 13 12 11 12 11 11 11 10 10 9 9 9 8 8 8 7 7 8 6 6
13 13 13 13 13 13 13 12 13 13 13 13 13 12 12 13 11 10 12 11 10 9 9 8 8 7 7 7 6 6 5 5
13 14 13 13 13 13 13 14 14 13 13 13 13 12 13 13 13 11 11 10 10 9 9 8 7 7 7 6 5 4 4 4

GFSFLT2_850_temp_054.txt.gz
Temp
13 13 13 13 12 12 11 13 14 15 14 14 15 14 14 14 14 14 14 14 14 13 13 12 12 11 12 12 12 12 12 12
13 13 13 13 12 12 12 13 14 14 14 14 14 14 14 14 14 13 13 13 13 13 13 13 12 12 12 12 12 11 12 12
12 12 13 12 12 12 10 13 13 13 13 14 14 14 14 13 13 13 13 13 13 13 12 12 12 12 12 12 12 12 12 12
12 12 11 12 11 11 9 12 13 13 13 14 14 14 14 13 13 13 13 12 12 12 12 12 12 12 12 12 12 12 12 12
12 12 12 12 12 11 12 13 13 13 13 13 13 13 13 13 13 12 12 12 12 12 11 12 12 12 12 12 12 12 11 12
12 11 11 11 11 12 12 13 13 13 13 13 13 13 13 13 13 12 13 12 12 12 12 12 12 11 11 12 12 12 12 12
12 11 11 11 12 12 12 12 12 12 13 13 13 13 13 13 13 13 13 12 12 12 12 12 11 11 11 12 12 12 12 12
11 11 11 12 11 11 12 12 12 13 13 12 13 13 13 13 13 13 12 12 12 11 12 11 11 11 12 12 12 12 12 11
11 11 10 10 10 10 11 11 12 12 12 12 13 13 13 13 13 13 12 12 12 11 11 11 11 11 11 11 11 11 11 11
10 9 10 10 9 10 11 11 11 12 12 12 12 13 13 12 12 13 12 11 11 11 11 11 11 11 10 11 11 11 11 10
9 9 9 9 9 9 10 11 11 11 11 12 12 12 11 12 12 12 12 11 11 11 11 11 11 10 10 10 10 10 10 10
8 8 8 9 9 9 10 10 10 11 11 12 13 12 12 12 12 11 12 11 11 11 11 11 10 10 10 10 10 10 10 10
9 8 8 8 9 10 10 10 10 11 11 12 12 12 12 12 12 12 12 12 12 11 11 11 10 10 10 10 10 10 9 9
8 8 9 9 9 9 9 10 11 11 11 11 12 12 12 13 12 12 12 12 12 11 11 11 10 10 10 10 10 9 10 9
9 8 8 9 9 9 9 10 10 11 11 12 12 12 12 12 12 12 11 11 11 11 11 11 11 10 10 10 9 9 9 9
9 9 9 9 9 9 9 10 11 11 11 12 12 12 12 12 12 11 11 11 11 11 11 11 10 10 9 9 9 9 8 8
10 9 9 9 9 10 10 11 11 11 12 12 12 12 12 12 12 11 11 12 11 11 11 11 10 9 9 9 8 8 7 7
11 11 10 9 10 11 11 11 11 12 13 12 12 12 12 12 12 12 11 11 11 11 10 11 9 9 9 8 8 7 7 7
12 12 12 12 12 12 12 12 12 12 12 12 12 12 12 12 12 12 11 10 11 11 10 10 9 9 8 8 7 7 6 7
12 12 12 12 12 12 12 12 12 12 12 12 12 12 13 12 12 12 12 12 11 10 10 9 9 9 8 8 7 6 6 6